Location: Branche des Alpilles
(43.6087°N, 4.6976°E)
Time: 05:35:04
(UTC+00:00)

CZ-2C R/B - Pass Details

Date: 30 November 2020
Orbit: 705 x 907 km, 98.1° (Epoch: 27 January)

Event Time Altitude Azimuth Distance (km) Brightness Sun altitude
Rises 17:38:23 0° 147° (SSE) 3,239 6.1 -16.3°
Reaches altitude 10° 17:40:49 10° 140° (SE) 2,287 5.2 -16.7°
Maximum altitude 17:45:31 42° 70° (ENE) 1,042 3.2 -17.5°
Drops below altitude 10° 17:50:03 10° 1° (N) 2,213 5.2 -18.3°
Sets 17:52:23 0° 354° (N) 3,123 6.1 -18.7°
